Back to catalog

FENGYUN 1C DEB

AliveSSO
NORAD 31451·DEBRIS·🇨🇳 China

Launched May 10, 1999 from Taiyuan Satellite Launch Center

Loading…

Next Passes (next 24 hours)

TLE

FreshSource: Space-Track

Epoch: Sep 11, 2026, 14:15 UTC

1 31451U 99025BUP 26254.59421478  .00000318  00000-0  18921-3 0  9994
2 31451  98.7330 295.7686 0032064 154.2405 358.5267 14.13938761998651

Track FENGYUN 1C DEB in real time with AllMySat

Download on the App Store